Location: Mannheim
(49.4880°N, 8.4650°E)
Time: 04:55:55
(UTC+02:00)

ACS3 Solar Sail - Pass Details

Date: 26 September 2024
Orbit: 963 x 1036 km, 97.4° (Epoch: 04 October)

Event Time Altitude Azimuth Distance (km) Brightness Sun altitude
Exits shadow 20:39:56 14° 137° (SE) 2,527 3.5 -14.6°
Maximum altitude 20:45:10 48° 68° (ENE) 1,322 2.2 -15.4°
Drops below altitude 10° 20:51:16 10° 356° (N) 2,831 4.5 -16.3°
Sets 20:53:50 0° 351° (N) 3,778 5.2 -16.7°
